Location: Unspecified
(0.0000°N, 0.0000°E)
Time: 12:01:57
(UTC+00:00)

Transit 4A - Visible Passes

Search period start: 07 October 2022 00:00
Search period end: 17 October 2022 00:00
Orbit: 870 x 974 km, 66.8° (Epoch: 07 October)

Date Brightness Start Highest point End Pass type
(mag) Time Alt. Az. Time Alt. Az. Time Alt. Az.
07 Oct 7.8 19:19:30 10° SSW 19:25:53 83° ESE 19:28:39 36° NNE visible
08 Oct 8.4 19:28:50 10° SSW 19:35:04 59° WNW 19:39:32 19° N visible
09 Oct 9.4 19:38:35 10° SW 19:44:16 35° WNW 19:49:51 10° N visible
10 Oct 8.6 18:01:40 10° S 18:07:23 35° ESE 18:12:59 10° NE visible
10 Oct 10.2 19:48:55 10° WSW 19:53:27 21° WNW 19:57:56 10° NNW visible
11 Oct 10.9 05:17:05 10° NE 05:18:37 11° ENE 05:20:10 10° E visible
11 Oct 8.1 18:10:20 10° S 18:16:36 59° ESE 18:22:43 10° NNE visible
11 Oct 10.7 20:00:50 10° W 20:02:41 11° WNW 20:04:31 10° NW visible
12 Oct 8.1 18:19:25 10° SSW 18:25:48 83° WNW 18:32:01 10° NNE visible
13 Oct 9.0 18:28:53 10° SW 18:34:58 49° WNW 18:40:57 10° N visible
14 Oct 9.9 18:38:48 10° SW 18:44:10 29° WNW 18:49:26 10° NNW visible
15 Oct 10.6 18:49:28 10° WSW 18:53:22 17° WNW 18:57:13 10° NNW visible
16 Oct 10.5 04:15:37 10° NE 04:18:31 14° ENE 04:21:26 10° E visible
